Regional Weather Roundup
Issued by NWS

Home | Current Version | Previous Version | Graphics & Text | Print | Product List | Glossary On
Versions: 1 2 3 4 5 6 7 8 9 10 11 12 13 14 15 16 17 18 19 20 21 22 23 24 25 26 27 28 29 30 31 32 33 34 35 36 37 38 39 40 41 42 43 44 45 46 47 48 49 50
494
ASUS45 KCYS 011810
RWRWY

WYOMING REGIONAL WEATHER ROUNDUP
NATIONAL WEATHER SERVICE CHEYENNE WY
1200 PM MDT SAT OCT 01 2016

NOTE:  "FAIR" INDICATES FEW OR NO CLOUDS BELOW 12,000 FEET
WITH NO SIGNIFICANT WEATHER AND/OR OBSTRUCTIONS TO VISIBILITY.

WYZ001-011900-
YELLOWSTONE NATIONAL PARK

CITY           SKY/WX    TMP DP  RH WIND       PRES   REMARKS
LK YELLOWSTONE   N/A     46  45  96 VRB5      30.26R
6HR MIN TEMP:  31; 6HR MAX TEMP:  54; 6HR PCP:  0.02;

W YELLOWSTONE  NOT AVBL

$$
WYZ002>013-054>058-071-098>099-011900-
NORTHERN WYOMING

CITY           SKY/WX    TMP DP  RH WIND       PRES   REMARKS
JACKSON        MOSUNNY   54  45  71 CALM      30.17F
CODY           FAIR      73  41  31 SE10      30.02F
GREYBULL       FAIR      71  48  43 VRB6      29.98F
6HR MIN TEMP:  48; 6HR MAX TEMP:  71;

WORLAND        FAIR      73  47  39 N3        29.99F
6HR MIN TEMP:  44; 6HR MAX TEMP:  73;

SHERIDAN       FAIR      77  53  43 VRB5      29.95F
6HR MIN TEMP:  45; 6HR MAX TEMP:  77;

BUFFALO        FAIR      75  46  35 SE16      30.03F
6HR MIN TEMP:  53; 6HR MAX TEMP:  76;

GILLETTE       FAIR      75  47  36 SE8       30.02F
6HR MIN TEMP:  45; 6HR MAX TEMP:  76;

HULETT         FAIR      73  50  43 CALM      30.03F
NEWCASTLE      FAIR      72  45  37 S3        30.04F

$$
WYZ014>020-022>026-101>103-011900-
CENTRAL WYOMING

CITY           SKY/WX    TMP DP  RH WIND       PRES   REMARKS
BIG PINEY      FAIR      57  41  55 SW5       30.21F
6HR MIN TEMP:  31; 6HR MAX TEMP:  57;

PINEDALE       FAIR      61  39  44 S8        30.22F
DUBOIS         FAIR      63  36  36 W17       30.15F
LANDER         FAIR      66  44  45 E5        30.08F
6HR MIN TEMP:  47; 6HR MAX TEMP:  66;

RIVERTON       FAIR      68  46  45 VRB3      30.09F
6HR MIN TEMP:  46; 6HR MAX TEMP:  68;

CASPER         FAIR      72  46  39 SW15G24   30.10F
6HR MIN TEMP:  46; 6HR MAX TEMP:  72;

DOUGLAS        FAIR      75  42  30 VRB5      30.08F
6HR MIN TEMP:  40; 6HR MAX TEMP:  76;


$$
WYZ021-027>030-104>119-011900-
SOUTHERN WYOMING

CITY           SKY/WX    TMP DP  RH WIND       PRES   REMARKS
EVANSTON       FAIR      65  40  39 SW17G29   30.20F
6HR MIN TEMP:  46; 6HR MAX TEMP:  66;

FORT BRIDGER   MOCLDY    68  42  38 NW5       30.22F
ROCK SPRINGS   FAIR      62  42  47 W5        30.20F
6HR MIN TEMP:  45; 6HR MAX TEMP:  63;

DIXON          FAIR      67  43  41 SW10G20   30.25F
RAWLINS        FAIR      64  39  39 W16       30.21F
6HR MIN TEMP:  38; 6HR MAX TEMP:  67;

SARATOGA       FAIR      66  37  34 SE8       30.23F
LARAMIE        FAIR      66  37  34 S6        30.21F
6HR MIN TEMP:  36; 6HR MAX TEMP:  66;

CHEYENNE       FAIR      70  38  31 SW7       30.15F
6HR MIN TEMP:  49; 6HR MAX TEMP:  75;

TORRINGTON     FAIR      75  44  33 VRB7      30.04F
6HR MIN TEMP:  44; 6HR MAX TEMP:  75;

PINE BLUFFS    FAIR      73  36  25 NW6       30.10F

$$




USA.gov is the U.S. government's official web portal to all federal, state and local government web resources and services.